Torna al catalogo

STARLINK-5192

AttivoComunicazioniVLEO
NORAD 54074·PAYLOAD·🇺🇸 United States

Lanciato Oct 20, 2022 da Cape Canaveral Space Force Station

Loading…

Prossimi Passaggi (prossime 24 ore)

TLE

AggiornatoSource: CelesTrak SupGP

Epoca: Sep 14, 2026, 14:20 UTC

1 54074C 22136Z   26257.59770833 -.00013395  00000+0 -38329-3 0  2575
2 54074  53.1584 207.7442 0001298  92.2336 229.1397 15.35402287    10

Traccia STARLINK-5192 in tempo reale con AllMySat

Download on the App Store